Meteo Giornale » Osservazioni meteo Stati Uniti (USA) » Monroe Custer

ore: 14:36 - Osservazioni Meteo Monroe Custer
Lat. 41° 56' N Lon. 83° 26' W Alt. 188 metri s.l.m.

poco_nuvoloso

28 °C

Poco Nuvoloso

Temp. 24 Ore

21 °C

28 °C

Sud

7.4 Km/h

Dew point 21 °C

Umidità 65 %

Visibilità  10 Km

Il sole sorge alle ore 06:58

Il sole tramonta alle ore 20:09

Data e Ora Cielo e Fenomeni T °C DP °C Um. % Pres. hPa Vis. km Vento km/h
Oggi h: 14:36 poco_nuvoloso Poco Nuvoloso 28 21 65 1016 10 S 7.4
Oggi h: 14:15 poco_nuvoloso Poco Nuvoloso 27 21 69 1016 10 S/SO 13
Oggi h: 13:55 sereno Sereno 27 22 74 1016 10 S 14.8
Oggi h: 13:35 sereno Sereno 27 22 74 1017 10 S/SO 16.7
Oggi h: 13:15 sereno Sereno 27 22 74 1017 10 S/SO 9.3
Oggi h: 12:55 sereno Sereno 27 22 74 1018 10 O 11.1
Oggi h: 12:35 sereno Sereno 27 21 69 1018 10 O 9.3
Oggi h: 12:16 sereno Sereno 27 21 69 1018 10 O 13
Oggi h: 11:55 sereno Sereno 27 21 69 1018 10 O/SO 11.1
Oggi h: 11:35 sereno Sereno 27 22 74 1018 10 O 13
Oggi h: 11:15 sereno Sereno 27 21 69 1017 10 O/SO 18.5
Oggi h: 10:55 sereno Sereno 26 21 73 1017 10 SO 14.8
Oggi h: 10:35 nuvoloso Nuvoloso 25 21 78 1017 10 SO 11.1
Oggi h: 10:15 nuvoloso Nuvoloso 25 21 78 1017 10 O/SO 13
Oggi h: 09:56 sereno Sereno 25 21 78 1017 10 SO 11.1
Oggi h: 09:35 sereno Sereno 25 21 78 1017 10 SO 9.3
Oggi h: 09:15 nuvoloso Nuvoloso 24 20 78 1017 10 SO 9.3
Oggi h: 08:55 molto_nuvoloso Molto Nuvoloso 24 20 78 1017 10 S/SO 9.3
Oggi h: 08:35 molto_nuvoloso Molto Nuvoloso 23 20 83 1017 10 S/SO 11.1
Oggi h: 08:15 molto_nuvoloso Molto Nuvoloso 23 20 83 1017 10 N 3.7
Oggi h: 07:55 poco_nuvoloso Poco Nuvoloso 22 20 88 1017 10 N 3.7
Oggi h: 07:36 molto_nuvoloso Molto Nuvoloso 22 20 88 1017 10 N 3.7
Oggi h: 07:15 coperto Coperto 22 20 88 1017 10 N 5.5
Oggi h: 06:55 coperto Coperto 22 20 88 1017 10 O/SO 7.4
Oggi h: 06:35 coperto Coperto 22 20 88 1017 10 O/SO 9.3
Oggi h: 06:15 coperto Coperto 22 20 88 1016 10 SO 9.3
Oggi h: 05:55 coperto Coperto 22 20 88 1016 10 SO 7.4
Oggi h: 05:35 nuvoloso Nuvoloso 22 20 88 1016 10 O 7.4
Oggi h: 05:16 molto_nuvoloso Molto Nuvoloso 22 20 88 1016 10 O/SO 7.4
Oggi h: 04:55 molto_nuvoloso Molto Nuvoloso 22 20 88 1016 10 O/SO 11.1
Oggi h: 04:35 molto_nuvoloso Molto Nuvoloso 23 20 83 1016 10 SO 11.1
Oggi h: 04:15 coperto Coperto 22 20 88 1016 10 SO 7.4
Oggi h: 03:55 coperto Coperto 22 20 88 1016 10 N 5.5
Oggi h: 03:35 molto_nuvoloso Molto Nuvoloso 22 20 88 1017 10 N 5.5
Oggi h: 03:15 molto_nuvoloso Molto Nuvoloso 22 20 88 1017 10 N 5.5
Oggi h: 02:56 coperto Coperto 22 20 88 1017 10 N 5.5
Oggi h: 02:35 molto_nuvoloso Molto Nuvoloso 22 20 88 1017 10 N 5.5
Oggi h: 02:15 coperto Coperto 22 20 88 1017 10 S 7.4
Oggi h: 01:55 coperto Coperto 22 20 88 1017 10 S/SO 9.3
Oggi h: 01:35 coperto Coperto 22 20 88 1017 10 N 3.7
Oggi h: 01:15 coperto Coperto 22 20 88 1017 10 N 3.7
Oggi h: 00:55 coperto Coperto 22 20 88 1017 10 N 5.5
Oggi h: 00:36 coperto Coperto 22 20 88 1017 10 SO 7.4
Oggi h: 00:15 molto_nuvoloso Molto Nuvoloso 22 20 88 1017 10 S/SO 9.3
Ieri h: 23:55 sereno Sereno 21 20 94 1017 10 N 5.5
Ieri h: 23:35 sereno Sereno 22 20 88 1017 10 S/SO 9.3
Ieri h: 23:15 sereno Sereno 21 20 94 1017 10 N 5.5
Ieri h: 22:55 sereno Sereno 22 20 88 1017 10 N 5.5
Ieri h: 22:35 sereno Sereno 22 20 88 1017 10 S 7.4
Ieri h: 22:16 sereno Sereno 22 20 88 1017 10 S 9.3
Ieri h: 21:55 sereno Sereno 22 19 83 1017 10 S 11.1
Ieri h: 21:35 sereno Sereno 22 19 83 1017 10 S 13
Ieri h: 21:15 sereno Sereno 22 19 83 1017 10 S 11.1
Ieri h: 20:55 nuvoloso Nuvoloso 22 19 83 1017 10 S 14.8
Ieri h: 20:35 molto_nuvoloso Molto Nuvoloso 22 19 83 1017 10 S/SE 11.1
Ieri h: 20:15 molto_nuvoloso Molto Nuvoloso 22 19 83 1017 10 S 9.3
Ieri h: 19:56 nuvoloso Nuvoloso 22 19 83 1017 10 S/SE 14.8
Ieri h: 19:35 nuvoloso Nuvoloso 22 19 83 1017 10 S/SE 13
Ieri h: 19:15 coperto Coperto 23 19 78 1018 10 S 11.1
Ieri h: 18:55 coperto Coperto 22 19 83 1018 10 S 13
Ieri h: 18:35 coperto_pioggia Pioggia 23 19 78 1018 10 S/SO 9.3
Ieri h: 18:15 coperto_pioggia Pioggia 23 20 83 1018 10 O 7.4
Ieri h: 17:55 coperto Coperto 24 19 73 1018 10 SO 13
Ieri h: 17:36 coperto Coperto 25 19 69 1017 10 SO 11.1
Ieri h: 17:15 coperto Coperto 25 19 69 1017 10 S 7.4
Ieri h: 16:55 coperto Coperto 24 19 73 1017 10 S 11.1
Ieri h: 16:35 molto_nuvoloso Molto Nuvoloso 25 19 69 1017 10 S/SO 11.1
Ieri h: 16:15 coperto Coperto 24 19 73 1017 10 S/SO 11.1
Ieri h: 15:55 coperto Coperto 24 19 73 1017 10 S 13
Ieri h: 15:35 coperto Coperto 23 20 83 1017 10 S 18.5
Ieri h: 15:16 nuvoloso Nuvoloso 23 20 83 1017 10 S 16.7
Ieri h: 14:55 sereno Sereno 23 20 83 1017 10 S 18.5
Ieri h: 14:35 sereno Sereno 23 20 83 1018 10 S 18.5